{"data":{"norad_id":64490,"intl_designator":"2025-133U","name":"STARLINK-34505","alt_names":[],"object_type":"PAYLOAD","status":"ACTIVE","operator":null,"country":"US","launch_date":"2025-06-23","launch_site_code":"AFETR","launch_vehicle":null,"mission":null,"orbit_class":"UNKNOWN","rcs_meters":null,"size_class":null,"mass_kg":null,"dimensions":null,"purposes":["comms"],"wikipedia_slug":null,"has_3d_model":false,"image_url":null,"decayed_at":null,"tle_current":{"epoch":"2026-05-25T05:08:58.013376Z","epoch_age_seconds":66631,"freshness":"FRESH","line1":"1 64490U 25133U   26145.21456034  .00043138  00000+0  14580-2 0  9998","line2":"2 64490  53.1568 121.4187 0000831  91.0562 269.0534 15.30248036 52886","mean_motion":15.30248036,"eccentricity":8.31e-5,"inclination_deg":53.1568,"raan_deg":121.4187,"arg_perigee_deg":91.0562,"mean_anomaly_deg":269.0534,"bstar":0.001458,"rev_number":5288,"period_min":94.102391646527,"perigee_km":474.5021446953,"apogee_km":475.64114797232,"semimajor_km":6853.2086463338,"source":"CELESTRAK","updated_at":"2026-05-25T13:38:20.460998Z"}}}